Home   Weather   Ottawa   Past weeks
Flag for Canada

Past Weather in Ottawa, Ontario, Canada — Yesterday and Last 2 Weeks

Now
-2 °F

Snow. Ice fog.


Feels Like: -24 °F
Forecast: 6 / -5 °F
Wind: 18 mph from Northwest

Location: Ottawa Int'L. Ont.

Current Time: Jan 20, 2019 at 12:38:55 pm

Latest Report: Jan 20, 2019 at 12:00 pm


Visibility: 0 mi

Pressure: 29.78 "Hg

Humidity: 77%

Dew Point: -8 °F

Location of OttawaLocation

Past Weather in Ottawa — Graph

°F

Ottawa Temperature Yesterday

Maximum temperature yesterday: 1 °F (at 12:00 am)
Minimum temperature yesterday: -11 °F (at 6:00 am)
Average temperature yesterday: -7 °F

High & Low Weather Summary for the Past Weeks

 TemperatureHumidityPressure
High36 °F (Jan 5, 11:48 am)100% (Jan 6, 3:00 am)30.64 "Hg (Jan 6, 3:00 am)
Low-11 °F (Jan 19, 6:00 am)46% (Jan 6, 12:00 pm)29.50 "Hg (Jan 9, 1:00 pm)
Average13 °F75%30.11 "Hg
* Reported Jan 5 11:00 am — Jan 20 11:07 am, Ottawa. Weather by CustomWeather, © 2019

Note: Actual official high and low records may vary slightly from our data, if they occured in-between our weather recording intervals... More about our weather records

Advertising

Ottawa Weather History for the Previous 24 Hours

Scroll right to see more
 ConditionsComfort  
Time TempWeatherWind HumidityBarometerVisibility
11:07 am
Sun, Jan 20
-2 °FLight snow. Ice fog.15 mph77%29.81 "Hg1 mi
10:00 am-2 °FSnow. Ice fog.14 mph77%29.84 "Hg1 mi
9:00 am-2 °FSnow. Ice fog.16 mph77%29.84 "Hg1 mi
8:00 am-2 °FSnow. Ice fog.14 mph77%29.85 "Hg1 mi
7:35 am-2 °FSnow. Ice fog.15 mph77%29.86 "Hg1 mi
7:00 am-2 °FLight snow. Ice fog.13 mph77%29.88 "Hg1 mi
6:00 am0 °FLight snow. Ice fog.9 mph78%29.89 "Hg1 mi
5:26 am-2 °FLight snow. Ice fog.15 mph84%29.90 "Hg1 mi
5:00 am-2 °FLight snow. Ice fog.14 mph77%29.92 "Hg1 mi
4:27 am-2 °FLight snow. Ice fog.10 mph77%29.96 "Hg1 mi
4:00 am-2 °FLight snow. Ice fog.9 mph77%29.99 "Hg1 mi
3:41 am-4 °FLight snow. Ice fog.9 mph77%30.00 "Hg1 mi
3:00 am-4 °FLight snow. Ice fog.9 mph77%30.03 "Hg1 mi
2:00 am-6 °FLight snow. Ice fog.14 mph77%30.05 "Hg1 mi
1:00 am-6 °FLight snow. Ice fog.14 mph77%30.11 "Hg1 mi
12:38 am-6 °FLight snow. Ice fog.13 mph77%30.14 "Hg1 mi
12:24 am-6 °FLight snow. Ice fog.14 mph77%30.15 "Hg1 mi
12:12 am-6 °FLight snow. Ice fog.15 mph77%30.16 "Hg1 mi
12:00 am-6 °FLight snow. Overcast.12 mph77%30.16 "Hg1 mi
11:18 pm
Sat, Jan 19
-6 °FLight snow. Overcast.14 mph70%30.17 "Hg1 mi
11:00 pm-6 °FLight snow. Ice fog.12 mph77%30.19 "Hg1 mi
10:07 pm-6 °FSnow flurries. Overcast.12 mph77%30.23 "Hg1 mi
9:27 pm-6 °FLight snow. Overcast.14 mph70%30.25 "Hg1 mi
9:00 pm-6 °FLight snow. Overcast.15 mph70%30.27 "Hg1 mi
8:31 pm-8 °FLight snow. Overcast.16 mph77%30.29 "Hg1 mi
8:00 pm-8 °FLight snow. Overcast.12 mph77%30.29 "Hg1 mi
7:00 pm-6 °FLight snow. Overcast.12 mph70%30.33 "Hg1 mi
6:00 pm-6 °FLight snow. Overcast.12 mph70%30.35 "Hg2 mi
5:23 pm-6 °FLight snow. Overcast.10 mph77%30.36 "Hg1 mi
5:00 pm-6 °FLight snow. Overcast.10 mph70%30.37 "Hg1 mi
4:35 pm-6 °FLight snow. Overcast.12 mph70%30.38 "Hg1 mi
4:13 pm-6 °FLight snow. Overcast.13 mph70%30.38 "Hg2 mi
3:33 pm-6 °FLight snow. Overcast.10 mph59%30.40 "Hg15 mi
3:00 pm-6 °FOvercast.10 mph59%30.41 "Hg15 mi
2:00 pm-6 °FOvercast.12 mph59%30.40 "Hg15 mi
1:00 pm-6 °FOvercast.13 mph54%30.41 "Hg15 mi
12:00 pm-8 °FOvercast.10 mph58%30.47 "Hg15 mi
Weather by CustomWeather, © 2019

See weather overview

LIVE TOTAL LUNAR ECLIPSE – Watch the eclipse as it happens